Back to catalog

STARLINK-33822

AliveCommunicationsVLEO
NORAD 63658·PAYLOAD·🇺🇸 United States

Launched Apr 25, 2025 from Cape Canaveral Space Force Station

Loading…

Next Passes (next 24 hours)

TLE

FreshSource: CelesTrak SupGP

Epoch: Sep 14, 2026, 22:37 UTC

1 63658C 25083AA  26257.94284722 -.00001149  00000+0 -41624-4 0  2570
2 63658  43.0038  16.5644 0001452 271.0434 274.7718 15.27579373    13

Track STARLINK-33822 in real time with AllMySat

Download on the App Store